www.pogodaiklimat.ru

Погода и климат >> Архив погоды >> Россия >> Приморский край >> Многоудобное


ПОГОДА в Многоудобном

  • Прогноз погоды в Многоудобном
  • Монитор погоды в Многоудобном

АРХИВ ПОГОДЫ в Многоудобном

Время (UTC), дата Ветер
(напр.,м/с)
 
Видим.   Явления Облачность Т
(С)
Тd
(С)
f
(%)
Тe
(С)
Тes
(С)
Комфортность P
(гПа)
Po
(гПа)
Тmin
(С)
Tmax
(С)
R
(мм)
R24
(мм)
S
(см)
09 10.07 ЮЗ 1 н/о н/о +17.6 +13.3 76 +19 +19 1012.8 1007.3 +22.1
12 10.07 Ю 1 н/о н/о +16.0 +12.1 78 +17 +17 1014.7 1009.2
15 10.07 Ю 1 н/о н/о +12.8 +11.6 92 +13 +13 1014.2 1008.7
18 10.07 штиль 0 н/о н/о +13.8 +12.1 89 +13 +13 1013.7 1008.1
21 10.07 штиль 0 н/о н/о +13.9 +12.4 91 +13 +13 1012.7 1007.1 +12.7
00 11.07 ЮЗ 1 н/о н/о +16.4 +12.4 77 +17 +17 1012.2 1006.7
03 11.07 З 1 н/о н/о +18.8 +13.9 73 +21 +21 комфорт 1011.2 1005.7
06 11.07 Ю 2 н/о н/о +19.3 +13.9 71 +21 +21 комфорт 1009.0 1003.6
09 11.07 Ю 1 н/о н/о +17.9 +13.7 76 +19 +19 1008.0 1002.5 +20.0
12 11.07 штиль 0 н/о н/о +15.7 +13.4 86 +15 +15 1008.0 1002.5
15 11.07 штиль 0 н/о н/о +14.9 +13.4 91 +15 +15 1006.6 1001.1
18 11.07 штиль 0 н/о н/о +14.4 +13.3 93 +14 +14 1004.9 999.4
21 11.07 штиль 0 н/о н/о +14.7 +13.6 93 +14 +14 1004.3 998.8 +14.3 1
00 12.07 штиль 0 н/о н/о +17.1 +14.9 87 +17 +17 1003.6 998.2
03 12.07 ЮЗ 1 н/о н/о +21.3 +17.0 76 +25 +25 комфорт 1001.7 996.3
06 12.07 ЮЗ 2 н/о н/о +22.3 +17.6 75 +27 +27 душно 1000.0 994.7
21 12.07 штиль 0 н/о н/о +16.6 +15.6 94 +16 +16 1001.7 996.3 +16.0 0.8
00 13.07 СВ 1 н/о н/о +19.5 +16.2 81 +23 +23 комфорт 1001.9 996.5
03 13.07 штиль 0 н/о н/о +21.5 +16.3 72 +25 +25 комфорт 1001.3 996.0
06 13.07 штиль 0 н/о н/о +20.1 +17.6 86 +23 +23 комфорт 1001.7 996.3
09 13.07 ЮЗ 1 н/о н/о +20.2 +18.1 88 +25 +25 комфорт 1001.5 996.1 +21.8 0.3
12 13.07 Ю 1 н/о н/о +17.5 +16.1 91 +19 +19 1003.5 998.0
15 13.07 ЮЗ 1 н/о н/о +16.5 +15.4 93 +17 +17 1004.4 998.9
18 13.07 штиль 0 н/о н/о +16.2 +15.2 94 +16 +16 1004.2 998.7
21 13.07 штиль 0 н/о н/о +16.2 +15.2 94 +16 +16 1004.4 998.9 +16.1 3
00 14.07 ЮЗ 1 н/о н/о +18.3 +16.0 86 +20 +20 1004.5 999.1
03 14.07 ЮЗ 1 н/о н/о +20.8 +16.6 77 +25 +25 комфорт 1004.5 999.1
06 14.07 ЮЗ 1 н/о н/о +23.1 +17.1 69 +28 +28 душно 1003.4 998.1
09 14.07 ЮЗ 2 н/о н/о +20.8 +16.6 77 +25 +25 комфорт 1004.0 998.6 +24.3 0.3
12 14.07 штиль 0 н/о н/о +18.6 +16.6 88 +19 +19 1005.5 1000.0
15 14.07 штиль 0 н/о н/о +17.6 +16.1 91 +18 +18 1006.6 1001.2
18 14.07 штиль 0 н/о н/о +17.1 +15.7 91 +17 +17 1007.3 1001.8
21 14.07 штиль 0 н/о н/о +17.1 +15.8 92 +17 +17 1008.3 1002.9 +17.0
00 15.07 ЮЗ 1 н/о н/о +19.0 +16.6 86 +22 +22 комфорт 1009.5 1004.1
03 15.07 ЮЗ 2 н/о н/о +22.5 +17.5 73 +27 +27 душно 1009.6 1004.2
06 15.07 ЮЗ 2 н/о н/о +21.2 +16.6 75 +25 +25 комфорт 1009.6 1004.2
09 15.07 Ю 1 н/о н/о +17.8 +16.3 91 +19 +19 1010.9 1005.4 +22.8 0.5

 

Местоположение метеостанции Многоудобное (Приморский край, Россия): широта 43.47 долгота 132.47 высота над уровнем моря 81 м.

В архиве по умолчанию представлена погода в Многоудобном за последнюю неделю. Архивные данные за месяц целиком и за предыдущие месяцы, начиная с января 2011 года, Вы можете получить, выбрав интересующий диапазон дат из раскрывающегося списка и нажав кнопку "Ввод!".


*Определитесь, кто Вы:
робот инопланетянин человек

Внимание! Время в таблицах - всемирное. Для получения местного времени необходимо прибавить поправку, которая равна 10 ч.

Смотрите также архив погоды в соседних городах и на ближайших метеорологических станциях:

Погода в Партизанске (Приморский край, Россия) (56 км)
Погода в Владивостоке (Приморский край, Россия) (60 км)
Погода в Тимирязевском (Приморский край, Россия) (65 км)
Погода на Мысе Назимова (Приморский край, Россия) (66 км)
Погода в Анучино (Приморский край, Россия) (70 км)
Погода в Находке (Приморский край, Россия) (79 км)
Погода в Барабаше (Приморский край, Россия) (92 км)
Погода в Лазо (Приморский край, Россия) (108 км)
Погода в Полтавке (Приморский край, Россия) (113 км)
Погода в Хороле (Приморский край, Россия) (113 км)

Пояснения к столбцам:

Ветер - указаны скорость ветра в м/с - средняя за 10 мин, порывы в срок и между сроками (в фигурных скобках) и направление, откуда дует ветер: С - северный, СВ - северо-восточный, В - восточный, ЮВ - юго-восточный, Ю - южный, ЮЗ - юго-западный, З - западный, СЗ - северо-западный.
Видимость - горизонтальная дальность видимости в метрах или километрах. При видимости от 1 до 10 км при отсутствии осадков обычно наблюдается дымка, при ухудшении видимости до 1 км и менее - туман. В сухую погоду видимость может ухудшаться дымом, пылью или мглою.
Явления - указаны атмосферные явления, наблюдавшиеся в срок или в последний час перед сроком; фигурными скобками обозначены явления, наблюдавшиеся между сроками (за 1-3 часа до срока); квадратными скобками обозначены град или гололедные отложения с указанием их диаметра в мм.
Облачность - указаны через наклонную черту общая и нижняя облачность в баллах и высота нижней границы облаков в метрах; квадратными скобками обозначены формы облаков: Ci - перистые, Cs - перисто-слоистые, Cc - перисто-кучевые, Ac - высококучевые, As - высокослоистые, Sc - слоисто-кучевые, Ns - слоисто-дождевые, Cu - кучевые, Cb - кучево-дождевые. Подробнее классификацию облаков см. в Атласе облаков (PDF).
T - Температура воздуха - температура, измеренная на высоте 2 м над землей.
Td - Температура точки росы - температура, при понижении до которой содержащийся в воздухе водяной пар достигнет насыщения.
f - Относительная влажность воздуха - влажноcть воздуха, измеренная на высоте 2 м над землей.
Te - Эффективная температура - температура, которую ощущает одетый по сезону человек в тени. Характеристика душности погоды. При расчете учитывается влияние влажности воздуха и скорости ветра на теплоощущения человека.
Tes - Эффективная температура на солнце - температура, которую ощущает человек, с поправкой на солнечный нагрев. Характеристика знойности погоды. Зависит от высоты солнца над горизонтом, облачности и скорости ветра. Ночью, в пасмурную погоду, а также при ветре 12 м/с и более поправка равна нулю.
P - Атмосферное давление - приведенное к уровню моря атмосферное давление.
Po - Атмосферное давление - измеренное на уровне метеостанции атмосферное давление.
Tmin - Минимальная температура - минимум температуры воздуха на высоте 2 м над землей.
Tmax - Максимальная температура - максимум температуры воздуха на высоте 2 м над землей.
R - Количество осадков - Количество выпавших осадков за период времени, мм. При наведении курсора мыши на число - период времени, за который выпало указанное количество осадков.
R24 - Количество осадков - Количество выпавших осадков за 24 часа, мм.
S - Снежный покров - Высота снежного покрова, см. При наведении курсора мыши на число - состояние снежного покрова и степень покрытия местности в баллах.